Location: Bovenkerk
(52.2915°N, 4.8336°E)
Time: 17:26:01
(UTC+00:00)

Cosmos 2322 Rocket - Pass Details

Date: 09 April 2020
Orbit: 834 x 849 km, 71.0° (Epoch: 29 May)

Event Time Altitude Azimuth Distance (km) Brightness Sun altitude
Rises 21:33:25 0° 329° (NNW) 3,409 6.8 -23.7°
Reaches altitude 10° 21:36:05 10° 338° (NNW) 2,469 5.6 -24.0°
Maximum altitude 21:41:17 36° 45° (NE) 1,306 3.2 -24.4°
Enters shadow 21:42:49 31° 78° (ENE) 1,445 3.2 -24.5°
